[[[{"header":{"parameterUnit":"kt","parameterCategory":2,"dx":1,"dy":1,"la1":30.253999710083008,"la2":30.299108505249023,"lo1":-89.0895004272461,"lo2":-89.04439544677734,"nx":28,"ny":28,"refTime":"2022-10-03T21:00:00:Z","depth":0,"parameterNumber":1,"parameterNumberName":"U-component_of_WINDS"},"data":[-6.3743,-6.3937,-6.3915,-6.4128,-6.4143,-6.4285,-6.4329,-6.4384,-6.4422,-6.4591,-6.4684,-6.4683,-6.4713,-6.4821,-6.4923,-6.492,-6.4966,-6.5053,-6.5035,-6.4664,-6.4611,-6.4561,-6.4512,-6.5063,-6.5063,-6.5423,-6.5426,-6.5429,-6.3479,-6.3496,-6.3601,-6.3687,-6.3777,-6.368,-6.3741,-6.3824,-6.3954,-6.4002,-6.4092,-6.4239,-6.4353,-6.4353,-6.4459,-6.4553,-6.4514,-6.4584,-6.4577,-6.4584,-6.4186,-6.4134,-6.4614,-6.4614,-6.4613,-6.4613,-6.4613,-6.4613,-6.2993,-6.311,-6.3147,-6.326,-6.3296,-6.3355,-6.3463,-6.3455,-6.3559,-6.3663,-6.3615,-6.3763,-6.3806,-6.3921,-6.3954,-6.4071,-6.3989,-6.4058,-6.4076,-6.4095,-6.412,-6.361,-6.4087,-6.4086,-6.4084,-6.4083,-6.4082,0,-6.263,-6.2602,-6.2698,-6.279,-6.287,-6.2939,-6.2998,-6.3064,-6.2995,-6.3084,-6.321,-6.3279,-6.3416,-6.3533,-6.3626,-6.3645,-6.3554,-6.3541,-6.3589,-6.3616,-6.3629,-6.3627,-6.2982,-6.3527,-6.3522,-6.3519,-6.3516,-6.3514,-6.2139,-6.2277,-6.2301,-6.2373,-6.2398,-6.2515,-6.258,-6.2508,-6.2581,-6.2643,-6.2751,-6.2866,-6.2954,-6.3162,-6.3151,-6.3254,-6.3211,-6.3423,-6.3226,-6.3247,-6.3217,-6.3211,-6.3225,-6.3462,-6.3469,-6.3474,-6.3479,0,-6.1866,-6.1822,-6.2027,-6.2037,-6.2043,-6.2193,-6.2202,-6.2316,-6.2294,-6.2449,-6.2481,-6.2448,-6.2574,-6.2528,-6.2662,-6.2635,-6.2887,-6.2841,-6.2872,-6.2861,-6.3048,-6.3032,-6.3655,-6.3734,-6.3161,-6.3166,-6.3171,0,-6.143,-6.1614,-6.1538,-6.1659,-6.1862,-6.1781,-6.1985,-6.1986,-6.2017,-6.2138,-6.2024,-6.2141,-6.2062,-6.2174,-6.2133,-6.2331,-6.2355,-6.2347,-6.2334,-6.2358,-6.236,-6.2397,-6.2371,-6.2296,-6.2293,-6.229,-6.2288,0,-6.1007,-6.118,-6.1376,-6.1408,-6.1435,-6.153,-6.1547,-6.158,-6.1644,-6.172,-6.1761,-6.1856,-6.1908,-6.1985,-6.1932,-6.1801,-6.2171,-6.1979,-6.2162,-6.2165,-6.2247,-6.2243,-6.2806,-6.2284,-6.2283,-6.2282,-6.2281,0,-6.0648,-6.0722,-6.1012,-6.1031,-6.108,-6.121,-6.1295,-6.1394,-6.1438,-6.1419,-6.1478,-6.1396,-6.1561,-6.1375,-6.1603,-6.1448,-6.1507,-6.1513,-6.1525,-6.1538,-6.1331,-6.1657,-6.2196,-6.2251,-6.155,-6.1544,-6.1539,0,-6.0177,-6.0456,-6.0386,-6.0664,-6.0786,-6.0647,-6.079,-6.083,-6.0816,-6.0919,-6.0904,-6.1023,-6.0873,-6.0904,-6.1023,-6.1013,-6.1216,-6.0984,-6.114,-6.1146,-6.1134,-6.1628,-6.1721,-6.2082,-6.146,-6.1468,-6.1474,0,-5.9806,-5.9832,-5.9886,-5.9919,-5.9956,-6.0057,-6.0221,-6.0318,-6.039,-6.0447,-6.0584,-6.0748,-6.0643,-6.0694,-6.0635,-6.0762,-6.1076,-6.0632,-6.0632,-6.0716,-6.1415,-6.1502,-6.1563,-6.101,-6.102,-6.1027,-6.1412,0,-5.9277,-5.9408,-5.9551,-5.9625,-5.9694,-5.9863,-5.9807,-5.9888,-5.9823,-5.9803,-6.0002,-6.0021,-6.0122,-6.0177,-6.0115,-6.0418,-6.036,-6.0246,-6.0061,-6.0385,-6.0511,-6.0562,-5.9879,-5.9873,-5.9868,-5.9864,0,0,-5.8839,-5.9024,-5.894,-5.9092,-5.9145,-5.8995,-5.9182,-5.9216,-5.929,-5.9332,-5.9228,-5.9462,-5.9483,-5.9731,-5.9827,-5.9867,-5.9917,-5.9805,-6.0231,-6.0272,-6.031,-6.0445,-6.0499,-5.9855,-5.9854,-5.9852,-5.985,0,-5.8633,-5.8651,-5.8833,-5.8864,-5.8907,-5.8874,-5.8919,-5.8934,-5.8929,-5.9121,-5.8996,-5.9109,-5.9297,-5.9335,-5.938,-5.9774,-5.9674,-5.9808,-6.0039,-6.0184,-6.0231,-6.0273,-6.0416,-6.0468,-5.9839,-5.9839,-5.984,0,-5.8258,-5.8267,-5.8348,-5.8457,-5.8483,-5.8611,-5.8403,-5.8546,-5.8641,-5.847,-5.8662,-5.8666,-5.8712,-5.8952,-5.9057,-5.8966,-5.9456,-5.929,-5.9319,-5.933,-5.9467,-5.9525,-5.9576,-5.8904,-5.8901,-5.8899,0,0,-5.8088,-5.8207,-5.8192,-5.8408,-5.8433,-5.8387,-5.8448,-5.8388,-5.843,-5.8448,-5.8448,-5.8496,-5.8604,-5.8677,-5.8776,-5.9046,-5.9051,-5.9177,-5.9221,-5.9257,-5.9288,-5.9435,-5.9492,-5.8887,-5.8887,-5.8886,0,0,-5.8006,-5.7996,-5.7922,-5.8165,-5.8208,-5.8209,-5.8344,-5.8254,-5.8335,-5.8309,-5.8217,-5.8226,-5.8448,-5.8456,-5.831,-5.8709,-5.8528,-5.8561,-5.8696,-5.875,-5.8794,-5.8788,-5.81,0,0,0,0,0,-5.7764,-5.7997,-5.7929,-5.7961,-5.8098,-5.8246,-5.8263,-5.819,-5.8063,-5.8173,-5.816,-5.8047,-5.8359,-5.8226,-5.8261,-5.8426,-5.8739,-5.8766,-5.879,-5.9027,-5.9085,-5.9134,0,0,0,0,0,0,-5.7776,-5.7815,-5.7923,-5.7935,-5.7964,-5.8237,-5.8006,-5.7992,-5.805,-5.8025,-5.8053,-5.8048,-5.799,-5.8204,-5.8236,-5.8394,-5.8088,-5.875,-5.8772,-5.8792,-5.9046,-5.9094,-5.9135,0,0,0,0,0,-5.7785,-5.7816,-5.8054,-5.7931,-5.7957,-5.7916,-5.7996,-5.7983,-5.8027,-5.8005,-5.7996,-5.7966,-5.7996,-5.8018,-5.8223,-5.8381,-5.8066,-5.8078,-5.8764,-5.8782,-5.8797,-5.907,0,0,0,0,0,0,-5.7791,-5.7806,-5.8058,-5.8063,-5.7836,-5.7899,-5.7906,-5.7976,-5.8001,-5.7994,-5.7913,-5.7893,-5.8004,-5.8019,-5.8037,-5.8381,-5.8047,-5.806,-5.8067,-5.8777,-5.8791,-5.8803,0,0,0,0,0,0,-5.7789,-5.7812,-5.8061,-5.7945,-5.7936,-5.7884,-5.7891,-5.8053,-5.8003,-5.7907,-5.7891,-5.7904,-5.7978,-5.8022,-5.8035,-5.8291,-5.8033,-5.8045,-5.8053,-5.8058,-5.8789,-5.8799,0,0,0,0,0,0,-5.7797,-5.7817,-5.7943,-5.7937,-5.7928,-5.7983,-5.8026,-5.8172,-5.7902,-5.7908,-5.7876,-5.7864,-5.7984,-5.7995,-5.8034,-5.8286,-5.829,-5.8033,-5.8041,-5.8047,-5.8051,0,0,0,0,0,0,0,-5.7804,-5.7688,-5.8026,-5.793,-5.7922,-5.8113,-5.8114,-5.8116,-5.7899,-5.7889,-5.7878,-5.7869,-5.7965,-5.7978,-5.7991,-5.8281,0,0,-5.8032,-5.8038,0,0,0,0,0,0,0,0,-5.7678,-5.7686,-5.8026,-5.8027,-5.8028,-5.8113,-5.8114,-5.8115,-5.7897,-5.7889,-5.788,-5.7873,-5.7968,-5.7979,-5.7989,0,0,0,0,0,0,0,0,0,0,0,0,0,0,0,-5.8026,-5.8027,0,-5.8113,-5.8114,-5.8115,-5.7896,-5.7889,-5.7882,-5.7876,-5.7971,-5.798,-5.7989,0,0,0,0,0,0,0,0,0,0,0,0,0,0,0,0,0,0,0,0,0,0,0,0,0,0,0,0,0,0,0,0,0,0,0,0,0,0,0,0,0,0,0,0,0,0,0,0,0,0,0,0,0,0,0,0,0,0,0,0,0,0,0,0,0,0,0,0,0]}],[{"header":{"parameterUnit":"kt","parameterCategory":2,"dx":1,"dy":1,"la1":30.253999710083008,"la2":30.299108505249023,"lo1":-89.0895004272461,"lo2":-89.04439544677734,"nx":28,"ny":28,"refTime":"2022-10-03T21:00:00:Z","depth":0,"parameterNumber":2,"parameterNumberName":"V-component_of_WINDS"},"data":[4.2824,4.2706,4.2679,4.2528,4.2477,4.2366,4.2315,4.2246,4.2182,4.204,4.1951,4.1903,4.1818,4.1698,4.1593,4.1571,4.1526,4.151,4.1485,4.1599,4.1612,4.1624,4.1651,4.1503,4.1503,4.1369,4.1368,4.1367,4.2919,4.287,4.2783,4.2678,4.2601,4.2603,4.2515,4.2448,4.2345,4.2264,4.2174,4.2042,4.193,4.1847,4.1731,4.1666,4.1653,4.1636,4.1635,4.162,4.1744,4.1774,4.1649,4.1649,4.1649,4.1649,4.1649,4.1649,4.3084,4.3014,4.2934,4.2837,4.2775,4.2703,4.2627,4.2572,4.2479,4.236,4.2336,4.2215,4.2119,4.1958,4.1892,4.1791,4.1801,4.1767,4.1757,4.1747,4.1743,4.1937,4.1769,4.177,4.177,4.177,4.177,0,4.3192,4.3174,4.3086,4.2991,4.2917,4.2837,4.2756,4.2708,4.2644,4.2568,4.2454,4.2381,4.2233,4.2115,4.1995,4.193,4.1907,4.1903,4.1878,4.1885,4.1911,4.1891,4.2089,4.1904,4.1905,4.1906,4.1906,4.1906,4.3351,4.3272,4.3171,4.3113,4.3062,4.2967,4.2902,4.2852,4.2784,4.2671,4.2606,4.249,4.2393,4.2206,4.2126,4.201,4.1995,4.1929,4.1976,4.1992,4.1987,4.1989,4.1979,4.1917,4.1916,4.1915,4.1914,0,4.3442,4.3392,4.3258,4.3161,4.3134,4.3051,4.2964,4.2887,4.2837,4.2721,4.269,4.2606,4.2489,4.242,4.2267,4.2233,4.2083,4.2076,4.2118,4.211,4.204,4.2045,4.1831,4.1799,4.1959,4.1958,4.1957,0,4.3552,4.3448,4.3378,4.3302,4.3185,4.3137,4.3019,4.2964,4.2882,4.279,4.2761,4.2673,4.2597,4.2498,4.2446,4.2312,4.2284,4.2247,4.2232,4.2245,4.2249,4.2195,4.2199,4.221,4.2211,4.2212,4.2213,0,4.3695,4.3534,4.3413,4.3366,4.3247,4.3189,4.3134,4.3041,4.2974,4.2875,4.283,4.2717,4.2652,4.2562,4.2496,4.2531,4.2332,4.2364,4.2292,4.2293,4.2242,4.2245,4.2083,4.2215,4.2215,4.2215,4.2216,0,4.3771,4.3684,4.3515,4.3415,4.3373,4.329,4.318,4.3093,4.2994,4.2959,4.2879,4.2845,4.2726,4.2764,4.2595,4.2659,4.2595,4.2549,4.2543,4.2519,4.2561,4.2471,4.2331,4.231,4.251,4.2513,4.2515,0,4.3947,4.3763,4.372,4.3558,4.3463,4.3438,4.3343,4.3258,4.3203,4.3108,4.3043,4.2931,4.2946,4.2899,4.2827,4.275,4.2668,4.276,4.2608,4.2604,4.2633,4.2505,4.2498,4.2372,4.2545,4.2542,4.254,0,4.4074,4.3933,4.3907,4.385,4.3733,4.365,4.3543,4.3425,4.3365,4.3269,4.3172,4.3014,4.3017,4.2939,4.2896,4.2823,4.2722,4.2832,4.2828,4.2811,4.2555,4.2551,4.253,4.2709,4.2705,4.2702,4.2564,0,4.4195,4.4095,4.4024,4.3899,4.3826,4.3719,4.365,4.358,4.3552,4.3494,4.335,4.3251,4.3119,4.3077,4.3043,4.2901,4.291,4.2912,4.2934,4.2854,4.2805,4.2786,4.3014,4.3014,4.3014,4.3014,0,0,4.4371,4.4226,4.4178,4.4074,4.4008,4.3979,4.3871,4.3801,4.3657,4.3609,4.3626,4.3385,4.3301,4.313,4.3099,4.3046,4.3011,4.3039,4.2894,4.2881,4.2869,4.2819,4.2801,4.3015,4.3015,4.3015,4.3015,0,4.44,4.4334,4.4231,4.416,4.4052,4.3997,4.3973,4.3856,4.3812,4.3672,4.3639,4.3542,4.3347,4.3263,4.3194,4.3063,4.3036,4.3029,4.2984,4.2899,4.2886,4.2874,4.2823,4.2806,4.3015,4.3015,4.3015,0,4.4509,4.4429,4.4373,4.4226,4.4151,4.405,4.4064,4.3955,4.3877,4.3835,4.3693,4.3626,4.3504,4.3354,4.3282,4.3291,4.3064,4.3121,4.3117,4.3104,4.3017,4.3002,4.2988,4.3171,4.3172,4.3172,0,0,4.4541,4.4448,4.434,4.4225,4.4182,4.4097,4.4034,4.3997,4.3896,4.3854,4.3766,4.3662,4.3548,4.3473,4.3361,4.3208,4.3173,4.3144,4.3136,4.313,4.3115,4.3027,4.3011,4.3176,4.3176,4.3176,0,0,4.4552,4.4427,4.4417,4.4277,4.4187,4.4064,4.3994,4.3975,4.3869,4.3871,4.3792,4.376,4.3618,4.3549,4.3606,4.3366,4.3392,4.3377,4.3415,4.3404,4.3397,4.3413,4.3593,0,0,0,0,0,4.4544,4.4444,4.4437,4.4403,4.4209,4.4072,4.4045,4.3984,4.4007,4.3952,4.3875,4.3852,4.3564,4.3612,4.3574,4.3509,4.322,4.3212,4.3205,4.3218,4.3208,4.3199,0,0,0,0,0,0,4.453,4.4489,4.4439,4.4316,4.4271,4.4074,4.4098,4.4079,4.4011,4.401,4.3869,4.3848,4.3786,4.3627,4.3594,4.3533,4.3604,4.3217,4.321,4.3204,4.3214,4.3206,4.3199,0,0,0,0,0,4.4519,4.4486,4.4192,4.4316,4.4278,4.4174,4.4101,4.4085,4.403,4.3909,4.3888,4.3991,4.3786,4.3753,4.3607,4.355,4.3626,4.3614,4.3213,4.3207,4.3203,4.321,0,0,0,0,0,0,4.451,4.4466,4.4182,4.4168,4.435,4.4183,4.4156,4.4091,4.3932,4.3911,4.4027,4.4028,4.3785,4.376,4.3734,4.356,4.3645,4.3632,4.3625,4.3209,4.3204,4.3201,0,0,0,0,0,0,4.4483,4.4454,4.4175,4.4221,4.4211,4.4192,4.4168,4.4031,4.393,4.4059,4.4055,4.4029,4.3819,4.3764,4.3744,4.3533,4.3659,4.3647,4.3639,4.3634,4.3205,4.3202,0,0,0,0,0,0,4.447,4.4445,4.4224,4.4217,4.4208,4.4041,4.4069,4.387,4.3981,4.4066,4.3988,4.3991,4.3823,4.3802,4.3751,4.3549,4.3537,4.3659,4.3651,4.3645,4.3641,0,0,0,0,0,0,0,4.4459,4.4644,4.4269,4.4213,4.4206,4.4035,4.4031,4.4027,4.3982,4.3985,4.3987,4.399,4.3727,4.3714,4.3701,4.3561,0,0,4.366,4.3654,0,0,0,0,0,0,0,0,4.4653,4.4647,4.4269,4.4266,4.4263,4.4035,4.4031,4.4028,4.3982,4.3984,4.3987,4.3989,4.3723,4.3713,4.3702,0,0,0,0,0,0,0,0,0,0,0,0,0,0,0,4.4268,4.4266,0,4.4034,4.4032,4.4029,4.3982,4.3984,4.3986,4.3988,4.372,4.3712,4.3703,0,0,0,0,0,0,0,0,0,0,0,0,0,0,0,0,0,0,0,0,0,0,0,0,0,0,0,0,0,0,0,0,0,0,0,0,0,0,0,0,0,0,0,0,0,0,0,0,0,0,0,0,0,0,0,0,0,0,0,0,0,0,0,0,0,0,0,0,0]}]]]